Location: Newark
(46.1333°N, 13.0333°E)
Time: 05:16:08
(UTC+00:00)

ISS - Pass Details

Date: 12 November 2019
Orbit: 411 x 421 km, 51.6° (Epoch: 11 December)

Event Time Altitude Azimuth Distance (km) Brightness Sun altitude
Exits shadow 03:57:58 30° 167° (SSE) 776 -2.3 -21.8°
Drops below altitude 10° 04:00:03 10° 143° (SE) 1,501 -0.4 -21.5°
Sets 04:02:11 0° 137° (SE) 2,361 0.8 -21.1°
